Time,B instrument,Bx,By,Bz,sigma B,Ion instrument,Status,Tp_par,Tp_perp,carrot,r_sun,clat,clong,earth_he_angle,n_p,vp_x,vp_y,vp_z,vth_p_par,vth_p_perp
1980-04-15 00:00:16,1,6.975,-7.525,3.4,0.551135,1,1,69377.8,105037.0,1694,0.76830059,-5.0299559,276.54663,274.86694,6.09373,388.724,-4.08917,12.9858,33.843,41.6418
1980-04-15 00:03:00,1,6.76667,-7.86667,3.13333,0.365148,1,1,58976.6,86804.8,1694,0.76828229,-5.0301714,276.52344,274.86719,5.4059,385.541,-5.68385,21.5808,31.2031,37.8556
1980-04-15 00:05:42,1,7.4,-7.45,3.425,0.298957,1,1,38240.4,90875.5,1694,0.76827008,-5.0303154,276.49634,274.86743,5.07645,384.974,-4.2457,10.1962,25.1257,38.733
1980-04-15 00:08:24,1,6.15,-8.25,0.85,0.580948,1,1,34540.6,66172.4,1694,0.76825184,-5.0305319,276.47314,274.86768,4.45203,391.306,3.4185,24.4315,23.8794,33.0519
1980-04-15 00:11:06,1,4.7,-8.35,-0.05,0.212132,1,1,92817.0,107828.0,1694,0.76823354,-5.0307484,276.4502,274.86816,5.92336,402.042,8.83457,41.8122,39.1446,42.1915
1980-04-15 00:13:48,1,7.275,-6.325,4.175,0.889171,1,1,58752.7,121589.0,1694,0.76822132,-5.0308924,276.4231,274.86841,5.58944,381.656,-6.40966,-1.16085,31.1438,44.8028
1980-04-15 00:16:30,1,7.45,-7.75,2.625,0.420565,1,1,39506.3,123914.0,1694,0.76820308,-5.0311079,276.3999,274.86865,5.24102,385.998,2.50215,14.9425,25.5382,45.2291
1980-04-15 00:19:12,1,6.06667,-6.23333,5.4,0.42947,1,1,75323.7,130097.0,1694,0.76818478,-5.0313244,276.37671,274.8689,6.25451,379.819,6.98122,-2.27936,35.2634,46.3439
1980-04-15 00:21:54,1,5.86667,-7.66667,3.9,0.194365,1,1,92717.8,115940.0,1694,0.76817256,-5.0314684,276.34961,274.86914,6.78235,382.441,17.4108,7.77698,39.1237,43.7496
1980-04-15 00:24:36,1,5.675,-8.0,2.6,0.732718,1,1,77881.8,121894.0,1694,0.76815432,-5.0316849,276.32666,274.86963,5.42505,384.903,13.1111,9.0929,35.8572,44.8589
1980-04-15 00:27:18,1,4.925,-7.925,0.3,0.358818,1,1,69199.9,110548.0,1694,0.76813602,-5.0319004,276.30347,274.86987,5.71797,386.448,18.9008,14.8508,33.7995,42.7203
1980-04-15 00:30:00,1,4.575,-7.975,-0.975,0.265754,1,1,97337.2,109936.0,1694,0.76811773,-5.0321169,276.27661,274.87036,5.98253,389.074,14.0448,21.6138,40.0864,42.6018
1980-04-15 00:32:42,1,4.875,-7.975,-0.9,0.555653,1,1,74799.0,110171.0,1694,0.76810551,-5.0322609,276.25317,274.87036,6.01226,387.417,20.5925,25.2936,35.1403,42.6473
1980-04-15 00:35:24,1,5.95,-8.0,0.75,1.34907,1,1,66749.8,121131.0,1694,0.76808727,-5.0324774,276.23022,274.87085,5.8354,384.522,9.84734,16.1972,33.1958,44.7183
1980-04-15 00:38:06,1,5.775,-8.6,3.0,0.248747,1,1,64792.5,126010.0,1694,0.76806897,-5.0326929,276.20313,274.87109,6.11607,388.129,13.2149,-4.15083,32.7055,45.6101
1980-04-15 00:40:48,1,5.63333,-8.8,0.833333,0.194365,1,1,62799.5,104541.0,1694,0.76805675,-5.0328379,276.17993,274.87134,5.4101,386.62,10.1983,14.3258,32.1985,41.5434
1980-04-15 00:43:30,1,6.9,-7.5,1.63333,0.418994,1,1,59473.3,118078.0,1694,0.76803851,-5.0330534,276.15698,274.87183,5.36543,379.429,10.4618,0.557292,31.3342,44.1512
1980-04-15 00:46:12,1,6.0,-7.3,4.25,0.229129,1,1,70992.8,104744.0,1694,0.76802021,-5.0332699,276.12988,274.87207,5.28141,382.823,7.66173,-7.74637,34.2346,41.5837
1980-04-15 00:48:54,1,6.55,-7.4,4.2,0.482183,1,1,67837.6,144523.0,1694,0.76800799,-5.0334139,276.10669,274.87231,6.54263,373.799,5.48373,-3.61235,33.4652,48.8458
1980-04-15 00:51:36,1,7.2,-6.7,4.1,0.0,1,1,49110.8,152547.0,1694,0.76798975,-5.0336304,276.0835,274.87256,6.11739,381.027,2.47796,-4.87569,28.4739,50.1833
1980-04-15 00:54:18,1,7.55,-5.825,5.65,0.389711,1,1,54694.3,128666.0,1694,0.76797146,-5.0338459,276.05664,274.87305,6.33733,380.799,-0.988623,-8.1481,30.0489,46.0882
1980-04-15 00:57:00,1,7.65,-5.65,5.425,0.286138,1,1,50883.1,100915.0,1694,0.76795316,-5.0340624,276.03345,274.87329,5.87076,383.966,-6.44834,-7.45058,28.9831,40.8166
1980-04-15 00:59:42,1,8.7,-4.775,5.6,0.178536,1,1,51456.4,108388.0,1694,0.767941,-5.0342064,276.01025,274.87354,6.17887,384.629,-8.86688,-6.90485,29.1459,42.3008
1980-04-15 01:02:24,1,8.26667,-4.5,6.66667,0.194365,1,1,38407.3,106827.0,1694,0.7679227,-5.0344229,275.98315,274.87378,5.92409,381.491,-8.96613,-8.0102,25.1805,41.9951
1980-04-15 01:05:06,1,8.1,-4.46667,6.8,0.262467,1,1,59359.3,114893.0,1694,0.7679044,-5.0346384,275.96021,274.87427,6.6243,382.128,-15.3646,-9.15257,31.3042,43.5516
1980-04-15 01:07:48,1,8.26667,-4.53333,6.66667,0.365148,1,1,53895.5,109932.0,1694,0.76789218,-5.0347834,275.93701,274.87451,6.21256,381.977,-12.0168,-8.87882,29.8287,42.601
1980-04-15 01:10:30,1,8.375,-4.125,6.325,0.388104,1,1,51798.9,109736.0,1694,0.76787388,-5.0349989,275.90991,274.87476,5.904,381.151,-11.7576,-8.24037,29.2428,42.563
1980-04-15 01:13:12,1,7.375,-2.5,6.9,0.277263,1,1,64003.2,139218.0,1694,0.76785558,-5.0352154,275.88696,274.87524,6.85931,375.071,-9.65537,-14.7187,32.5056,47.9408
1980-04-15 01:15:54,1,5.3,-8.875,1.425,0.488621,1,1,80115.9,126592.0,1694,0.76784343,-5.0353594,275.85986,274.87549,6.61892,381.136,11.295,15.4755,36.3678,45.7152
1980-04-15 01:18:36,1,5.6,-8.5,1.7,0.273861,1,1,71927.4,101708.0,1694,0.76782513,-5.0355759,275.83667,274.87573,5.4513,387.068,15.0835,10.3652,34.4592,40.9765
1980-04-15 01:21:18,1,5.675,-8.35,0.8,0.253722,1,1,46090.8,123247.0,1694,0.76780683,-5.0357914,275.81372,274.87622,5.46565,385.841,11.8143,9.35853,27.5845,45.1072
1980-04-15 01:24:00,1,6.36667,-7.43333,-0.466667,0.454606,1,1,44851.3,125562.0,1694,0.76778853,-5.0360079,275.78662,274.87646,5.96287,384.949,6.98557,20.0949,27.211,45.5289
1980-04-15 01:26:42,1,6.8,-6.4,-1.76667,0.329983,1,1,56465.5,114642.0,1694,0.76777631,-5.0361519,275.76343,274.87671,6.16906,381.467,-2.81829,28.6913,30.5316,43.504
1980-04-15 01:29:24,1,4.3,-8.775,-0.375,0.890926,1,1,68954.2,101440.0,1694,0.76775801,-5.0363684,275.74048,274.8772,5.31025,397.131,14.9447,20.7899,33.7395,40.9226
1980-04-15 01:32:06,1,5.375,-7.95,-0.825,0.601041,1,1,62889.9,107306.0,1694,0.76773971,-5.0365849,275.71338,274.87744,6.27788,390.596,7.32581,24.6774,32.2217,42.0892
1980-04-15 01:34:48,1,5.4,-8.325,1.6,1.11215,1,1,61639.1,99763.5,1694,0.76772755,-5.0367289,275.69019,274.87769,5.59214,386.663,11.0952,16.0121,31.8997,40.583
1980-04-15 01:37:30,1,6.05,-7.825,0.4,0.272718,1,1,55936.6,108976.0,1694,0.76770926,-5.0369453,275.66699,274.87793,6.10243,382.632,11.2585,25.8276,30.3883,42.4154
1980-04-15 01:40:12,1,5.725,-8.35,0.3,0.156125,1,1,61251.6,100561.0,1694,0.76769096,-5.0371609,275.64014,274.87842,6.16336,382.549,14.7814,21.4136,31.7992,40.7448
1980-04-15 01:42:54,1,6.725,-7.325,1.8,0.372492,1,1,65102.2,116762.0,1694,0.76767874,-5.0373049,275.61694,274.87866,6.14214,382.422,12.6613,11.8165,32.7835,43.9044
1980-04-15 01:45:36,1,7.73333,-6.1,3.56667,0.380058,1,1,51252.9,108634.0,1694,0.76766044,-5.0375214,275.59375,274.87891,5.93379,377.401,6.1608,5.37026,29.0882,42.3488
1980-04-15 01:48:18,1,7.5,-6.03333,2.23333,0.352767,1,1,56121.4,107939.0,1694,0.76764214,-5.0377378,275.56689,274.87939,6.24369,375.758,8.44143,10.7339,30.4384,42.213
1980-04-15 01:51:00,1,7.525,-6.55,2.0,0.330719,1,1,57508.5,109481.0,1694,0.76762384,-5.0379534,275.5437,274.87964,5.87684,377.401,7.7802,9.55589,30.8123,42.5136
1980-04-15 01:53:42,1,6.65,-6.925,0.575,0.566789,1,1,46401.8,107146.0,1694,0.76761168,-5.0380983,275.52051,274.87988,6.0572,379.366,8.00526,10.3201,27.6774,42.0576
1980-04-15 01:56:24,1,7.825,-5.6,0.3,0.471036,1,1,57800.4,105107.0,1694,0.76759338,-5.0383139,275.49365,274.88037,6.15052,378.639,5.70748,11.8216,30.8904,41.6557
1980-04-15 01:59:06,1,6.25,-7.3,0.5,0.517204,1,1,45889.7,100583.0,1694,0.76757509,-5.0385303,275.47046,274.88062,5.82959,383.257,10.4737,17.7698,27.5242,40.7493
1980-04-15 02:01:48,1,6.1,-7.25,0.3,0.384057,1,1,46011.7,100039.0,1694,0.76756287,-5.0386744,275.44727,274.88086,5.5462,382.977,10.3737,10.2412,27.5608,40.639
1980-04-15 02:04:30,1,5.625,-4.1,-3.9,0.376663,1,1,60127.4,100951.0,1694,0.76754457,-5.0388908,275.42017,274.8811,6.40161,387.918,-4.37481,33.2522,31.5061,40.8237
1980-04-15 02:07:12,1,3.16667,-6.13333,-3.86667,0.282843,1,1,73519.6,99305.0,1694,0.76752627,-5.0391073,275.39722,274.88159,6.10848,399.468,5.95545,32.8852,34.8385,40.4896
1980-04-15 02:09:54,1,4.0,-5.925,-4.1,0.454835,1,1,59960.3,116059.0,1694,0.76751405,-5.0392513,275.37402,274.88184,6.66396,397.484,5.17834,31.6839,31.4623,43.7721
1980-04-15 02:12:36,1,4.325,-5.9,-3.6,0.178536,1,1,63868.5,104163.0,1694,0.76749569,-5.0394678,275.34692,274.88208,6.40697,398.261,3.93854,33.7727,32.4714,41.4681
1980-04-15 02:15:18,1,3.875,-5.8,-3.8,0.486698,1,1,64129.5,117050.0,1694,0.76747739,-5.0396843,275.32397,274.88257,6.46921,397.591,1.49659,37.7944,32.5377,43.9585
1980-04-15 02:18:00,1,0.95,-5.225,-4.875,0.85805,1,1,60801.9,98740.6,1694,0.76745909,-5.0399008,275.30078,274.88281,5.94065,419.631,-2.02165,47.0457,31.6823,40.3744
1980-04-15 02:20:42,1,6.5,-5.55,1.625,0.37333,1,1,50080.8,101935.0,1694,0.76744688,-5.0400448,275.27368,274.88306,5.29277,374.233,4.93197,-5.21725,28.7537,41.0223
1980-04-15 02:26:06,1,6.3,-5.775,1.05,0.315238,1,1,104103.0,127380.0,1694,0.76741022,-5.0404778,275.22754,274.88379,6.37085,382.119,11.0981,11.5289,41.4562,45.8574
1980-04-15 02:28:48,1,6.45,-6.15,2.175,0.389711,1,1,83720.5,109781.0,1694,0.767398,-5.0406218,275.20044,274.88403,5.5422,380.908,11.7999,0.638675,37.177,42.5717
1980-04-15 02:31:30,1,6.3,-6.7,3.4,0.0,1,1,53161.1,96035.4,1694,0.7673797,-5.0408382,275.17725,274.88428,5.47753,381.546,14.8035,-0.864451,29.6248,39.8175
1980-04-15 02:34:12,1,6.23333,-6.2,2.33333,0.312694,1,1,58587.1,90841.8,1694,0.7673614,-5.0410538,275.1543,274.88477,5.34851,380.545,14.1869,4.99226,31.0999,38.7258
1980-04-15 02:36:54,1,7.25,-4.875,2.475,0.237171,1,1,63468.3,98914.7,1694,0.76734918,-5.0411987,275.1272,274.88501,5.95807,376.522,11.2308,3.30856,32.3695,40.4099
1980-04-15 02:39:36,1,5.65,-6.6,2.0,0.206155,1,1,105012.0,87013.5,1694,0.76733088,-5.0414152,275.104,274.88525,5.8909,383.07,14.0836,1.33732,41.6369,37.9011
1980-04-15 02:42:18,1,5.1,-6.4,1.7,0.2,1,1,106357.0,104502.0,1694,0.76731253,-5.0416307,275.08105,274.88574,6.50471,373.292,18.9647,0.43948,41.9026,41.5356
1980-04-15 02:45:00,1,3.475,-6.6,1.2,0.227761,1,1,80256.6,94728.2,1694,0.76729423,-5.0418472,275.05396,274.88599,6.65738,365.858,18.0016,-6.54411,36.3997,39.5455
1980-04-15 02:47:42,1,4.35,-5.95,2.3,0.273861,1,1,99416.5,110306.0,1694,0.76728201,-5.0419922,275.03076,274.88623,7.81053,373.578,23.2657,-4.93616,40.5123,42.6734
1980-04-15 02:50:24,1,4.8,-5.7,2.16667,0.188562,1,1,108373.0,93556.8,1694,0.76726371,-5.0422077,275.00781,274.88672,6.86808,373.148,16.9872,-3.37771,42.2978,39.3003
1980-04-15 02:52:33,-1,nan,nan,nan,nan,1,4,nan,nan,1694,0.76725149,-5.0423527,274.98853,274.88696,nan,nan,nan,nan,nan,nan
1980-04-15 02:53:06,1,4.1,-6.4,0.433333,0.188562,1,1,98616.0,106902.0,1694,0.76727539,-4.9376154,274.89359,274.79984,6.72747,383.032,19.9753,6.66171,40.3489,42.0099
1980-04-15 02:55:46,1,6.0,-5.83333,3.1,0.567646,1,1,107378.0,107450.0,1694,0.76723319,-5.0425682,274.95752,274.88721,7.5091,376.416,17.56,-4.71119,42.1033,42.1174
1980-04-15 03:35:45,-1,nan,nan,nan,nan,1,3,nan,nan,1694,0.76698875,-5.0454531,274.59497,274.89185,nan,380.133,4.95527,-2.36637,nan,nan
1980-04-15 03:46:33,-1,nan,nan,nan,nan,1,3,nan,nan,1694,0.76692158,-5.0462465,274.49878,274.89331,nan,380.391,3.18841,-5.76038,nan,nan
1980-04-15 03:57:21,-1,nan,nan,nan,nan,1,3,nan,nan,1694,0.76685435,-5.04704,274.39844,274.89453,nan,374.643,-2.97696,-9.13865,nan,nan
1980-04-15 04:08:09,-1,nan,nan,nan,nan,1,3,nan,nan,1694,0.76678711,-5.0478325,274.30225,274.896,nan,368.634,8.31733,0.171115,nan,nan
1980-04-15 04:18:57,-1,nan,nan,nan,nan,1,3,nan,nan,1694,0.76672596,-5.0485535,274.20581,274.89722,nan,365.294,6.98209,1.72353,nan,nan
1980-04-15 04:29:45,-1,nan,nan,nan,nan,1,3,nan,nan,1694,0.76665866,-5.049346,274.10547,274.89844,nan,374.936,2.05193,-4.64239,nan,nan
1980-04-15 04:40:33,-1,nan,nan,nan,nan,1,3,nan,nan,1694,0.76659143,-5.0501385,274.00928,274.8999,nan,373.982,-0.444539,-9.47785,nan,nan
1980-04-15 04:51:21,-1,nan,nan,nan,nan,1,3,nan,nan,1694,0.76652414,-5.050931,273.91284,274.90112,nan,375.207,4.05351,-15.937,nan,nan
1980-04-15 05:02:09,-1,nan,nan,nan,nan,1,3,nan,nan,1694,0.76645684,-5.0517244,273.8125,274.90234,nan,373.218,8.47598,-13.2412,nan,nan
1980-04-15 05:12:57,-1,nan,nan,nan,nan,1,3,nan,nan,1694,0.76639563,-5.0524454,273.71606,274.90356,nan,368.894,14.1582,-22.4665,nan,nan
1980-04-15 05:23:45,-1,nan,nan,nan,nan,1,3,nan,nan,1694,0.76632828,-5.0532389,273.61597,274.90503,nan,371.479,21.2271,-16.0457,nan,nan
1980-04-15 05:34:33,-1,nan,nan,nan,nan,1,3,nan,nan,1694,0.76626092,-5.0540323,273.51953,274.90625,nan,369.837,15.3232,-24.3953,nan,nan
1980-04-15 05:45:21,-1,nan,nan,nan,nan,1,3,nan,nan,1694,0.76619357,-5.0548248,273.4231,274.90747,nan,379.14,11.159,-27.1021,nan,nan
1980-04-15 05:56:09,-1,nan,nan,nan,nan,1,3,nan,nan,1694,0.76612622,-5.0556183,273.323,274.90894,nan,361.961,10.7057,-24.2609,nan,nan
1980-04-15 06:06:57,-1,nan,nan,nan,nan,1,3,nan,nan,1694,0.766065,-5.0563402,273.22656,274.91016,nan,348.587,7.594,-13.0791,nan,nan
1980-04-15 06:17:45,-1,nan,nan,nan,nan,1,3,nan,nan,1694,0.76599759,-5.0571337,273.13013,274.91138,nan,352.822,15.8736,-9.24222,nan,nan
1980-04-15 06:28:33,-1,nan,nan,nan,nan,1,3,nan,nan,1694,0.76593018,-5.0579271,273.03003,274.91284,nan,357.465,10.9774,-13.8697,nan,nan
1980-04-15 06:39:21,-1,nan,nan,nan,nan,1,3,nan,nan,1694,0.76586276,-5.0587215,272.93359,274.91406,nan,352.407,14.3267,-21.5563,nan,nan
1980-04-15 06:50:09,-1,nan,nan,nan,nan,1,3,nan,nan,1694,0.76579541,-5.059515,272.8374,274.91553,nan,355.094,9.33809,-15.4223,nan,nan
1980-04-15 07:00:57,-1,nan,nan,nan,nan,1,3,nan,nan,1694,0.76573408,-5.0602369,272.73706,274.91675,nan,417.208,12.0876,-11.7647,nan,nan
1980-04-15 07:11:45,-1,nan,nan,nan,nan,1,3,nan,nan,1694,0.76566666,-5.0610304,272.64063,274.91797,nan,353.826,9.10716,-0.157128,nan,nan
1980-04-15 07:45:12,-1,nan,nan,nan,nan,1,3,nan,nan,1694,0.76545811,-5.0634823,272.33618,274.92212,nan,350.743,4.04652,6.88493,nan,nan
1980-04-15 07:46:33,1,3.54286,-2.55714,-3.74286,0.305059,1,1,51510.5,65941.3,1694,0.76545197,-5.0635548,272.32471,274.92236,5.10181,350.081,-5.11198,7.14364,29.1612,32.9941
1980-04-15 07:47:54,1,3.51429,-2.54286,-3.8,0.263416,1,1,66497.6,73063.4,1694,0.76544583,-5.0636263,272.31299,274.92236,6.10687,353.097,5.86945,9.16834,33.133,34.7302
1980-04-15 07:48:05,1,3.48571,-2.74286,-3.8,0.162882,1,1,71827.1,65594.5,1694,0.76543969,-5.0636988,272.31323,274.92261,6.04142,350.714,6.78452,7.41385,34.4352,32.9072
1980-04-15 07:49:26,1,3.25714,-2.52857,-3.72857,0.330738,1,1,60457.0,69755.3,1694,0.76543355,-5.0637712,272.29761,274.92261,6.09134,352.6,9.13503,7.52486,31.5923,33.9349
1980-04-15 07:50:47,1,2.95,-1.41667,-4.26667,0.310018,1,1,66782.5,64952.0,1694,0.76542741,-5.0638428,272.28613,274.92285,5.34332,348.552,10.2736,11.0144,33.2039,32.7457
1980-04-15 07:52:08,1,2.85714,-1.05714,-4.48571,0.325764,1,1,62253.8,70817.6,1694,0.76541519,-5.0639868,272.27466,274.9231,5.47838,349.699,4.97999,9.04154,32.0583,34.1923
1980-04-15 07:53:29,1,2.35714,-0.671429,-4.6,0.156492,1,1,74660.8,59653.8,1694,0.76540905,-5.0640593,272.26294,274.9231,5.92483,350.585,0.492203,9.34801,35.1078,31.3817
1980-04-15 07:54:50,1,2.28571,-1.28571,-4.22857,0.305059,1,1,74540.3,67696.5,1694,0.76540291,-5.0641317,272.25146,274.92334,6.03375,348.442,-1.89234,15.8598,35.0795,33.4304
1980-04-15 07:56:11,1,2.75,-2.01667,-4.35,0.364768,1,1,74143.4,50408.4,1694,0.76539063,-5.0642757,272.23999,274.92358,5.64289,349.857,-1.26559,15.345,34.986,28.8476
1980-04-15 07:57:32,1,2.97143,-2.54286,-3.67143,0.32639,1,1,79909.0,70958.4,1694,0.7653845,-5.0643482,272.22437,274.92358,6.17647,352.559,-4.21025,15.1068,36.3208,34.2263
1980-04-15 07:58:53,1,3.27143,-1.22857,-4.02857,0.33442,1,1,59014.1,45632.2,1694,0.76537836,-5.0644197,272.21289,274.92383,5.54531,352.779,2.50208,11.0175,31.213,27.4469
1980-04-15 08:00:14,1,2.63333,-3.23333,-3.83333,0.365148,1,1,87726.3,61700.7,1694,0.76536614,-5.0645647,272.20142,274.92407,5.96069,352.997,-3.04019,15.076,38.056,31.9156
1980-04-15 08:01:35,1,2.35714,-3.54286,-3.74286,0.295545,1,1,74956.1,42898.4,1694,0.76536,-5.0646362,272.1897,274.92407,5.28199,352.25,-3.57828,15.182,35.1772,26.612
1980-04-15 08:02:56,1,2.58571,-3.82857,-3.47143,0.266497,1,1,80356.7,56884.9,1694,0.7653538,-5.0647087,272.17822,274.92432,5.33745,351.159,-1.07645,14.0959,36.4224,30.6448
1980-04-15 08:04:17,1,2.64286,-3.08571,-3.87143,0.333809,1,1,73766.8,49329.9,1694,0.76534158,-5.0648527,272.16675,274.92456,5.29409,351.351,5.66154,9.56872,34.897,28.5373
1980-04-15 08:05:38,1,2.32857,-3.91429,-3.7,0.316872,1,1,79910.0,56544.9,1694,0.76533544,-5.0649252,272.15112,274.92456,5.56401,350.971,1.72404,10.1381,36.321,30.5531
1980-04-15 08:06:59,1,2.51429,-4.11429,-3.22857,0.739829,1,1,72569.4,50303.5,1694,0.7653293,-5.0649977,272.13965,274.9248,5.07859,351.261,2.15633,12.3841,34.6126,28.8176
1980-04-15 08:08:20,1,2.38571,-4.35714,-3.21429,0.310365,1,1,52886.9,57210.5,1694,0.76531702,-5.0651417,272.12817,274.92505,4.97293,352.267,4.08661,10.2969,29.5483,30.7323
1980-04-15 08:09:41,1,2.15714,-5.14286,-2.45714,0.224063,1,1,66309.7,34567.2,1694,0.76531088,-5.0652142,272.11646,274.92505,4.7315,350.903,5.28338,13.1903,33.0862,23.8886
1980-04-15 08:11:02,1,2.7,-4.64286,-2.37143,0.314286,1,1,78258.1,56351.3,1694,0.7652986,-5.0653582,272.10498,274.92529,5.43709,350.049,4.48474,16.803,35.9437,30.5007
1980-04-15 08:12:23,1,2.42857,-4.2,-3.18571,0.504672,1,1,67481.2,44881.7,1694,0.76529247,-5.0654306,272.09351,274.92554,4.79691,350.692,2.66475,11.9872,33.3771,27.2203
1980-04-15 08:13:44,1,2.1,-4.67143,-2.91429,0.532227,1,1,82811.2,55336.1,1694,0.76528633,-5.0655022,272.07788,274.92554,5.29019,352.499,5.60841,12.4797,36.9745,30.2247
1980-04-15 08:15:05,1,1.85714,-3.81429,-2.62857,0.671884,1,1,62521.0,42581.6,1694,0.76527405,-5.0656471,272.06641,274.92578,4.77464,351.639,7.76565,16.6978,32.1271,26.5136
1980-04-15 08:16:26,1,2.28571,-4.37143,-2.22857,0.9256,1,1,64323.2,59407.2,1694,0.76526791,-5.0657187,272.05493,274.92603,5.94221,349.778,9.34479,11.6097,32.5868,31.3168
1980-04-15 08:17:47,1,2.25714,-4.21429,-1.65714,0.67431,1,1,48943.4,45874.9,1694,0.76526177,-5.0657911,272.04321,274.92603,4.83723,347.955,19.0428,11.797,28.4253,27.5198
1980-04-15 08:19:08,1,1.1,-3.83333,-1.93333,0.176383,1,1,74517.8,57328.3,1694,0.76524949,-5.0659351,272.03174,274.92627,6.00174,341.192,15.991,11.5188,35.0742,30.764
1980-04-15 08:20:29,1,1.83333,-3.63333,-1.2,0.338296,1,1,68778.0,55002.0,1694,0.76524335,-5.0660076,272.01636,274.92651,6.11078,347.092,18.4077,12.7436,33.6963,30.1333
1980-04-15 08:21:50,1,1.41429,-3.64286,-0.628571,0.447214,1,1,64333.5,66048.0,1694,0.76523721,-5.0660801,272.00464,274.92651,6.84947,348.599,21.9461,14.4201,32.5894,33.0208
1980-04-15 08:23:11,1,0.471429,-4.81429,-0.2,1.63283,1,1,106835.0,64799.1,1694,0.76522493,-5.0662241,271.99316,274.92676,6.30094,370.612,17.0357,-18.0477,41.9966,32.7071
1980-04-15 08:24:32,1,2.58571,-3.44286,-3.3,0.312984,1,1,57479.0,54456.5,1694,0.76521879,-5.0662966,271.98169,274.927,5.40288,353.236,15.8113,9.9339,30.8044,29.9835
1980-04-15 08:25:53,1,2.62857,-3.07143,-3.12857,0.363093,1,1,55907.3,45086.4,1694,0.76521266,-5.0663681,271.96997,274.927,4.92889,350.584,15.7346,11.2139,30.3803,27.2823
1980-04-15 08:27:14,1,2.8,-2.44286,-2.92857,0.931315,1,1,37859.8,49678.9,1694,0.76520038,-5.0665131,271.9585,274.92725,6.26225,341.448,9.4697,15.5921,25.0004,28.6381
1980-04-15 08:28:35,1,1.58571,-3.17143,-2.8,0.142857,1,1,49832.7,48220.8,1694,0.76519424,-5.0665846,271.94312,274.92749,6.07559,350.75,16.5294,12.2466,28.6824,28.2147
1980-04-15 08:29:56,1,1.68333,-2.6,-2.95,0.283823,1,1,53253.5,58675.3,1694,0.7651881,-5.0666571,271.9314,274.92749,6.34715,350.984,15.1562,11.1369,29.6505,31.1233
1980-04-15 08:31:17,-1,nan,nan,nan,nan,1,-3,nan,nan,1694,0.76517582,-5.0668011,271.91992,274.92773,nan,353.71,7.81203,6.68114,nan,nan
1980-04-15 08:32:38,1,-2.64286,-4.47143,2.8,1.2347,1,1,159313.0,47916.3,1694,0.76516968,-5.0668736,271.90845,274.92798,5.4696,361.439,12.1155,-3.60071,51.2842,28.1255
1980-04-15 08:33:59,1,-1.8,-5.12857,0.0714286,0.40507,1,1,119469.0,54486.0,1694,0.76516354,-5.066946,271.89673,274.92798,5.80351,359.626,17.9675,8.6777,44.4104,29.9916
1980-04-15 08:35:20,1,-2.24286,-5.7,1.71429,0.339267,1,1,126374.0,45797.2,1694,0.76515126,-5.06709,271.88525,274.92822,6.11796,361.87,19.3463,1.79272,45.6759,27.4965
1980-04-15 08:36:41,1,-1.35714,-5.77143,1.87143,1.28428,1,1,118393.0,54176.5,1694,0.76514512,-5.0671625,271.86987,274.92847,5.83267,366.749,16.6077,-1.66557,44.2101,29.9063
1980-04-15 08:38:02,1,-3.25,-5.41667,3.08333,0.710829,1,1,85172.7,50444.8,1694,0.76513284,-5.0673065,271.8584,274.92871,5.75026,367.618,18.3212,-6.1125,37.498,28.858
1980-04-15 08:39:23,1,-3.12857,-5.28571,3.57143,0.399489,1,1,72318.3,54222.3,1694,0.76512671,-5.067379,271.84668,274.92871,5.25301,364.365,24.6216,-5.25989,34.5527,29.919
1980-04-15 09:51:03,-1,nan,nan,nan,nan,1,3,nan,nan,1694,0.76468444,-5.0725718,271.19922,274.9375,nan,333.753,-2.7769,5.75179,nan,nan
1980-04-15 09:52:24,1,5.33333,-2.21667,-1.63333,0.330404,1,1,43768.6,35728.1,1694,0.7646783,-5.0726442,271.18774,274.93774,5.86025,337.58,-0.94943,6.86143,26.8806,24.2864
1980-04-15 09:53:45,1,5.48571,-1.84286,-1.75714,0.257143,1,1,35064.2,32163.5,1694,0.76467216,-5.0727158,271.17212,274.93774,5.5825,334.706,-3.09777,6.48863,24.0597,23.043
1980-04-15 09:55:06,1,4.91429,-2.68571,-1.84286,0.291373,1,1,49954.4,33445.3,1694,0.76465988,-5.0728598,271.16064,274.93799,5.65971,338.895,1.17796,10.5067,28.7174,23.4977
1980-04-15 09:56:29,1,5.16667,-2.66667,-1.7,0.366667,1,1,35200.2,34789.3,1694,0.76465374,-5.0729322,271.14917,274.93823,5.69346,335.198,-2.202,9.35133,24.1063,23.9652
1980-04-15 09:57:50,1,5.0,-2.66667,-1.76667,0.352767,1,1,37195.5,37745.6,1694,0.7646476,-5.0730047,271.13745,274.93823,5.71559,335.374,2.13166,7.56476,24.7801,24.9627
1980-04-15 09:59:11,1,5.5,-3.42857,-1.1,0.468171,1,1,35763.2,33798.1,1694,0.76463532,-5.0731487,271.12598,274.93848,5.63199,333.701,3.01262,4.43996,24.2983,23.6213
1980-04-15 10:00:32,1,5.7,-3.05714,-0.871429,0.405573,1,1,35769.1,34316.6,1694,0.76462919,-5.0732212,271.1145,274.93872,5.75021,331.211,2.80248,3.45763,24.3003,23.8018
1980-04-15 10:01:53,1,5.71429,-2.74286,-1.15714,0.273302,1,1,36108.2,32004.0,1694,0.76462299,-5.0732927,271.09888,274.93872,5.71464,335.085,2.16745,2.11221,24.4152,22.9858
1980-04-15 10:03:14,1,5.81429,-2.74286,-0.928571,0.472077,1,1,40941.8,37264.4,1694,0.76461071,-5.0734377,271.0874,274.93896,6.22965,333.04,1.74683,1.56107,25.9981,24.803
1980-04-15 10:04:35,1,5.94286,-2.58571,-0.328571,0.239046,1,1,39076.1,33927.9,1694,0.76460457,-5.0735092,271.07593,274.93921,5.93813,333.864,0.0243868,3.81149,25.3988,23.6666
1980-04-15 10:05:56,1,5.74286,-2.6,-1.05714,0.577468,1,1,37088.3,34064.3,1694,0.76459843,-5.0735817,271.06421,274.93921,5.66171,335.27,-2.60587,8.65506,24.7444,23.7142
1980-04-15 10:07:17,1,5.68333,-2.55,-1.23333,0.222361,1,1,34683.3,32723.5,1694,0.76458609,-5.0737257,271.05273,274.93945,5.68083,334.44,-2.89646,5.51488,23.9286,23.2428
1980-04-15 10:08:38,1,5.61429,-2.31429,-1.38571,0.222234,1,1,44983.1,32801.7,1694,0.76457995,-5.0737982,271.04126,274.9397,5.64532,338.099,-2.90797,5.28667,27.251,23.2705
1980-04-15 10:09:59,1,5.62857,-2.65714,-0.985714,0.329502,1,1,33820.6,31764.9,1694,0.76457381,-5.0738707,271.02563,274.9397,5.96609,334.66,-1.02777,4.89413,23.6292,22.8998
1980-04-15 10:11:20,1,5.65714,-2.62857,-1.15714,0.188442,1,1,42002.1,39333.0,1694,0.76456153,-5.0740147,271.01416,274.93994,5.90578,334.78,-0.445898,4.47856,26.3326,25.4822
1980-04-15 10:12:41,1,5.52857,-2.71429,-1.38571,0.253948,1,1,35598.7,34105.5,1694,0.76455534,-5.0740871,271.00269,274.94019,5.84684,335.03,-0.414943,4.48462,24.2424,23.7285
1980-04-15 10:14:02,1,5.2,-3.17143,-1.44286,0.270298,1,1,39951.3,37709.8,1694,0.76454306,-5.0742311,270.99121,274.94043,5.91786,338.568,3.64844,5.24043,25.6817,24.9508
1980-04-15 10:15:23,1,5.37143,-3.34286,-0.414286,0.389138,1,1,34987.0,32057.5,1694,0.76453692,-5.0743036,270.97949,274.94043,5.73833,336.909,1.62616,5.40743,24.0332,23.005